Tracking 30986 objects as of 9-Jul-2025
HD Live streaming from Space Station
objects crossing your sky now

QIANFAN-6

Track QIANFAN-6 now!
10-day predictions
QIANFAN-6 is classified as:


NORAD ID: 60384
Int'l Code: 2024-140F
Perigee: 1,067.6 km
Apogee: 1,084.2 km
Inclination: 89.0 °
Period: 106.6 minutes
Semi major axis: 7446 km
RCS: Unknown
Launch date: August 6, 2024
Source: People's Republic of China (PRC)
Launch site: Taiyaun Space Center, China (TSC)
Your satellite tracking list
Your tracking list is empty




NASA's NSSDC Master Catalog

Two Line Element Set (TLE):
1 60384U 24140F   25190.20144398  .00000077  00000-0  10090-3 0  9997
2 60384  88.9842 315.1778 0011119 289.6683  70.3268 13.50954620 46369
Source of the keplerian elements: AFSPC